This is the latest recevied weather packets stored in our database for station/object WA2TQI. If no packets are shown the sender has not sent any weather packets the latest 10 day(s).
| Time | Temp. | Humidity | Pressure | Rain* | Wind** | Luminosity | Snow |
|---|---|---|---|---|---|---|---|
| 1777799569 | 8.33° C | 70% | 1012.8 hPa | 0 mm | - | - | - |
| 1777799264 | 8.33° C | 71% | 1012.7 hPa | 0 mm | - | - | - |
| 1777798955 | 8.33° C | 71% | 1012.7 hPa | 0 mm | - | - | - |
| 1777798651 | 8.33° C | 70% | 1012.5 hPa | 0 mm | - | - | - |
| 1777798348 | 8.33° C | 70% | 1012.4 hPa | 0 mm | - | - | - |
| 1777797743 | 8.33° C | 71% | 1012.5 hPa | 0 mm | - | - | - |
| 1777797440 | 8.33° C | 71% | 1012.3 hPa | 0 mm | - | - | - |
| 1777797137 | 8.33° C | 71% | 1012.3 hPa | 0 mm | - | - | - |
| 1777796834 | 8.33° C | 71% | 1012.2 hPa | 0 mm | - | - | - |
| 1777796531 | 8.33° C | 71% | 1012.2 hPa | 0 mm | - | - | - |
| 1777796231 | 8.33° C | 71% | 1012.2 hPa | 0 mm | - | - | - |
| 1777795928 | 8.33° C | 71% | 1012 hPa | 0 mm | - | - | - |
| 1777795623 | 8.33° C | 72% | 1012.2 hPa | 0 mm | - | - | - |
| 1777795321 | 8.33° C | 72% | 1012.3 hPa | 0 mm | - | - | - |
| 1777795017 | 7.78° C | 72% | 1012.2 hPa | 0 mm | - | - | - |
| 1777794714 | 7.78° C | 73% | 1012.2 hPa | 0 mm | - | - | - |
| 1777794410 | 7.22° C | 75% | 1012.1 hPa | 0 mm | - | - | - |
| 1777794105 | 6.67° C | 78% | 1012.2 hPa | 0 mm | - | - | - |
| 1777793802 | 6.67° C | 79% | 1012.3 hPa | 0 mm | - | - | - |
| 1777793500 | 7.22° C | 79% | 1012.2 hPa | 0 mm | - | - | - |
| 1777793198 | 7.22° C | 77% | 1012.2 hPa | 0 mm | - | - | - |
| 1777792894 | 7.78° C | 75% | 1012.1 hPa | 0 mm | - | - | - |
| 1777792591 | 7.78° C | 73% | 1012 hPa | 0 mm | - | - | - |
| 1777792288 | 8.33° C | 71% | 1012.1 hPa | 0 mm | - | - | - |
| 1777791986 | 8.33° C | 71% | 1012.1 hPa | 0 mm | - | - | - |
* Rain latest hour (hover to see other rain measurements)
** Current wind speed in m/s (hover to see current wind gust speed)